Theta_e
320 322 324 324 323 324 323 325 324 325 325 324 320 319 319 319 319 321 324 324 324 323 321 320 320 318 318 318 318 318 319 318 316 311 312 307 301 296 295 296 297 297 295
312 319 320 322 322 323 323 323 324 324 325 326 325 321 319 320 322 323 325 325 324 323 321 320 319 319 317 317 317 318 317 317 315 309 307 304 302 299 294 294 296 295 294
312 315 318 321 322 320 319 319 323 324 325 325 324 320 320 320 320 322 324 325 325 323 322 321 320 320 320 318 318 318 317 314 313 312 307 298 298 299 295 291 293 294 293
307 314 317 319 321 322 322 318 319 322 323 325 323 323 321 319 322 323 326 325 324 323 323 323 323 322 322 320 320 322 320 317 312 309 307 303 299 294 292 291 290 292 292
302 307 316 319 321 323 324 324 318 318 321 322 323 322 321 322 323 324 324 325 325 324 323 323 322 322 321 322 319 318 319 318 313 308 302 299 296 296 292 288 287 291 291
299 303 312 318 319 322 324 323 323 318 319 319 321 321 320 321 322 322 323 324 324 324 323 322 322 322 321 320 320 320 318 315 312 307 301 298 295 292 289 287 286 287 289
299 301 303 309 314 318 322 323 324 323 320 318 320 320 321 322 323 323 324 323 323 319 322 321 321 320 319 316 315 314 314 311 308 304 298 295 294 294 291 288 286 285 288
300 299 301 307 312 317 320 321 322 324 324 322 319 320 322 325 324 324 325 324 324 323 323 321 322 319 317 315 313 307 305 302 301 297 294 292 291 291 290 289 287 284 285
295 299 299 302 309 312 316 320 322 324 324 325 325 322 322 323 325 325 325 324 323 322 315 318 320 317 314 312 308 306 300 297 294 293 292 290 289 289 289 289 288 287 283
294 295 295 296 299 307 311 315 319 321 322 324 326 325 325 325 325 325 324 324 323 319 316 315 316 314 311 308 305 300 296 295 293 291 290 288 288 288 287 288 288 287 286
294 295 295 296 296 296 297 301 309 313 315 317 322 323 323 324 325 325 324 325 322 317 316 314 311 309 307 304 301 297 294 294 292 290 289 288 288 287 287 287 287 286 286
295 296 296 296 296 297 297 297 297 299 304 308 311 313 316 315 320 323 325 320 317 313 313 310 308 307 304 301 300 296 296 295 291 290 289 287 288 286 287 286 286 286 286
296 295 295 295 296 296 296 296 297 298 299 302 303 304 306 309 311 314 311 309 307 306 304 304 304 302 301 298 297 298 295 292 293 290 289 288 287 285 286 285 285 286 286
296 295 295 295 295 296 296 296 297 298 299 301 301 300 301 305 307 307 307 304 303 302 301 301 301 300 297 297 295 295 293 291 290 290 289 288 287 286 285 285 285 285 283
296 296 295 295 294 295 296 296 296 297 298 299 299 299 298 300 300 299 298 298 297 297 297 295 295 295 294 295 293 292 291 290 288 288 288 287 286 287 288 286 285 285 283
296 295 295 294 294 295 295 296 296 296 297 297 296 297 296 294 293 291 291 293 292 292 291 291 290 291 293 293 293 291 289 288 287 287 286 286 285 288 289 289 289 287 284
295 294 293 293 293 294 296 295 295 295 294 292 291 291 290 290 289 288 287 287 288 288 288 288 287 288 289 292 292 290 288 288 287 286 285 284 284 285 286 289 290 288 289
294 293 293 294 294 295 295 295 294 292 290 289 289 288 288 287 286 285 285 285 287 287 286 286 286 287 286 292 292 289 287 287 286 286 286 285 284 284 285 285 285 285 286
292 292 292 294 293 293 293 290 288 287 288 287 287 287 286 283 284 281 282 286 285 284 284 285 285 285 285 291 291 288 285 285 284 284 285 284 283 285 287 284 283 283 284
290 290 292 292 291 290 289 287 286 286 286 286 287 286 285 281 281 281 283 284 284 284 283 284 285 285 285 291 291 287 286 285 283 283 284 284 284 286 287 283 282 281 282
289 289 289 287 287 287 286 285 285 284 285 284 283 281 281 280 280 279 278 278 282 283 283 283 284 285 285 287 290 289 285 285 283 283 283 283 287 287 287 287 283 283 284
286 286 285 283 283 283 284 283 282 283 280 280 280 278 276 279 278 275 275 277 283 283 283 283 282 282 283 286 290 290 287 286 284 283 283 283 287 287 288 287 286 287 285
283 283 281 280 280 279 281 281 280 280 279 278 277 275 276 277 276 274 273 275 276 278 281 281 281 280 281 283 288 289 289 287 284 284 284 285 286 287 287 288 288 285 285
280 279 278 277 276 276 277 276 277 278 277 276 276 275 274 274 274 276 276 274 274 274 276 277 280 280 280 281 283 286 287 286 286 285 284 285 285 286 286 284 286 285 285
278 277 276 275 273 273 273 272 274 273 277 276 275 275 274 272 273 275 274 275 274 276 273 273 274 274 274 281 284 286 286 286 286 283 282 283 283 282 283 283 283 284 284
276 275 273 272 270 269 268 268 269 270 273 275 275 274 273 272 273 272 273 282 283 285 285 286 280 275 283 285 285 285 287 288 288 283 282 281 281 281 281 281 281 282 282
Wind_Speed
16 15 14 12 9 14 15 16 15 15 9 6 5 6 7 6 4 5 8 9 8 7 7 5 5 5 5 6 5 4 5 3 3 4 4 4 4 5 5 4 5 6 5
8 15 14 14 12 15 16 15 17 15 14 9 6 4 4 4 6 4 7 8 9 9 7 6 5 5 3 5 5 4 2 2 3 3 3 3 1 2 2 4 5 6 5
15 14 15 17 13 13 16 16 17 16 15 15 6 3 3 2 4 5 6 8 11 9 8 8 7 7 5 5 5 6 7 3 1 3 5 2 4 4 1 1 4 5 4
10 15 17 15 16 15 14 15 15 16 15 15 12 16 12 12 10 10 7 8 10 10 10 10 9 9 6 6 7 6 4 4 5 2 1 2 5 4 2 1 1 3 6
12 12 16 20 18 16 14 14 15 16 16 16 15 12 13 10 8 8 9 10 8 10 10 10 10 9 7 8 7 5 6 4 4 4 3 1 1 2 4 4 3 1 1
12 11 14 15 14 14 13 11 13 15 15 16 17 16 16 12 8 9 9 8 8 8 10 10 10 10 9 9 8 8 7 5 3 3 5 5 5 4 4 3 2 4 3
9 13 11 10 10 13 15 13 13 15 14 16 17 17 16 15 13 13 11 10 8 6 11 12 10 9 9 7 6 6 8 9 8 8 5 3 4 4 3 4 3 4 3
7 9 11 10 12 14 14 13 12 14 11 14 16 16 15 11 12 12 10 9 10 10 10 11 10 10 9 8 7 4 4 3 4 8 6 4 4 4 3 5 5 2 2
3 1 7 8 8 9 13 15 15 16 14 17 15 15 15 16 13 15 12 11 12 10 10 12 13 10 9 9 10 8 7 6 5 5 7 4 4 4 4 3 3 5 5
5 4 3 3 3 6 6 7 10 14 13 13 13 13 15 16 16 11 15 15 14 13 12 13 12 10 9 9 10 6 7 7 5 5 7 5 3 4 3 3 3 2 4
5 3 1 2 2 1 1 4 6 7 8 9 11 11 11 12 13 15 14 15 12 12 13 13 13 12 12 11 10 9 7 10 11 6 7 7 7 5 4 4 3 3 3
7 4 1 2 2 3 4 5 4 4 5 4 5 7 7 6 10 13 13 8 10 9 11 10 10 10 10 11 12 12 10 11 13 10 10 8 6 6 5 4 5 4 3
6 4 2 4 4 5 5 5 5 7 6 5 6 6 5 5 6 5 3 5 6 6 5 6 8 9 10 10 11 12 11 10 9 10 9 11 10 7 6 5 6 4 3
7 4 2 4 5 5 6 5 6 5 5 4 4 5 4 4 4 3 5 5 4 6 6 6 6 7 8 10 10 9 11 10 9 10 11 11 12 12 11 8 8 6 5
6 6 4 3 4 5 5 5 4 5 4 4 4 4 2 2 2 3 2 4 3 1 2 3 4 5 7 7 10 10 10 11 9 10 8 5 6 7 10 8 7 8 5
7 5 4 2 3 4 4 4 4 4 3 4 4 3 4 3 2 1 2 4 5 5 5 6 6 7 6 9 13 12 9 8 9 8 7 6 10 10 13 13 14 11 9
6 4 2 2 2 3 3 3 4 3 4 3 2 2 3 4 4 3 3 2 3 2 4 5 6 6 5 12 15 14 9 9 8 9 7 5 3 6 6 10 13 12 14
5 4 3 2 4 3 4 3 4 4 4 2 0 0 0 2 1 1 3 2 2 4 4 5 5 5 5 13 13 9 4 5 8 8 10 10 10 9 9 7 6 5 5
5 3 2 2 5 6 5 6 7 5 4 2 1 2 3 3 3 3 3 2 2 1 1 2 2 2 1 13 14 13 6 5 4 3 8 9 9 13 17 9 9 7 5
5 5 5 6 7 6 6 7 6 5 5 3 2 2 4 4 4 4 4 2 3 2 2 3 3 3 3 10 13 10 6 7 6 7 6 9 10 17 20 10 10 9 9
7 7 8 7 6 5 6 8 6 7 5 4 4 4 3 2 1 1 2 1 2 2 1 2 1 3 5 8 15 16 6 6 6 6 6 6 17 16 21 16 10 11 8
8 8 9 8 7 7 6 7 7 5 3 4 5 6 4 3 2 4 1 2 3 3 1 2 0 1 1 3 12 15 10 7 4 6 5 5 16 17 19 17 16 15 10
7 6 9 9 8 8 7 7 5 5 5 7 6 5 5 5 3 3 2 2 2 2 3 2 1 1 1 0 10 14 13 11 6 5 8 12 16 18 15 20 16 13 7
8 6 9 9 8 6 7 5 5 5 6 6 6 5 4 3 4 3 2 2 1 1 1 2 2 3 3 4 3 5 8 14 11 6 4 7 9 12 10 7 13 8 8
6 7 9 8 7 5 6 6 5 2 6 5 4 4 3 3 3 2 1 1 2 2 2 3 2 1 1 5 10 10 8 8 9 7 4 5 5 6 7 6 8 8 8
7 8 7 9 6 5 5 6 6 3 4 6 4 3 3 3 2 2 2 6 6 8 8 10 4 3 10 9 13 17 18 16 14 6 7 8 8 9 9 9 9 9 11
Wind_Direction
199 196 201 198 174 181 174 183 181 198 188 183 180 191 196 199 196 198 186 189 192 192 190 189 186 187 179 198 192 190 201 147 145 102 80 44 67 97 108 113 109 105 101
190 196 191 191 183 188 187 183 187 188 200 198 194 180 167 193 201 202 210 193 188 195 192 190 201 203 205 195 196 197 190 105 154 130 96 158 133 48 72 122 127 133 123
197 200 190 193 193 189 194 189 188 188 192 198 182 140 141 165 187 204 208 200 194 193 187 193 190 200 189 212 199 194 187 162 157 173 148 135 213 134 172 24 132 144 123
198 198 194 194 198 203 196 195 189 189 193 189 192 200 202 201 209 209 202 197 190 194 194 199 204 203 200 199 216 209 182 149 169 136 182 122 150 176 164 263 221 147 142
203 193 198 200 203 198 199 194 191 192 192 191 195 199 209 211 201 201 197 201 203 203 200 203 203 209 205 217 201 192 194 183 165 154 157 138 102 121 134 177 196 54 159
212 214 201 203 198 197 197 190 191 197 192 193 199 202 210 208 198 195 201 204 206 209 210 208 205 211 214 210 211 202 187 183 174 180 167 162 167 196 157 142 148 163 204
213 216 200 190 186 187 192 192 195 202 194 197 202 203 207 206 205 205 204 199 202 206 214 204 205 207 206 199 184 188 187 184 186 176 194 165 179 150 145 126 164 157 163
219 224 219 194 189 192 190 187 189 205 195 202 208 208 207 206 210 210 206 209 210 212 209 205 209 208 197 186 180 174 181 191 185 171 166 170 181 161 161 162 148 158 161
215 204 225 204 200 188 192 193 197 208 198 203 205 206 209 211 210 213 204 205 206 204 189 193 206 203 199 188 181 184 185 166 181 184 158 157 175 160 159 157 160 156 176
95 72 55 111 176 211 219 211 211 213 213 211 210 208 209 212 215 205 209 207 205 194 190 194 199 198 195 183 183 183 164 167 167 174 165 161 154 157 158 163 155 130 141
110 92 43 6 354 356 246 236 227 217 210 204 213 220 220 215 213 215 215 215 205 192 199 198 189 190 187 182 185 178 174 179 170 173 168 173 158 167 162 154 146 149 128
145 153 218 332 344 307 285 262 260 250 260 261 244 229 226 216 217 226 228 204 196 196 199 191 189 188 191 186 187 181 189 196 175 185 161 183 166 170 158 156 163 150 149
177 205 216 244 256 263 261 261 244 236 231 215 217 240 247 235 236 231 178 173 161 172 168 173 188 185 187 189 194 189 184 172 198 189 184 179 167 174 172 160 156 150 149
193 199 212 208 217 230 233 234 246 242 245 235 231 236 238 235 227 210 162 164 177 170 173 185 198 193 185 187 179 196 176 188 177 195 169 188 191 176 166 177 175 160 151
184 177 182 219 234 234 239 233 226 221 208 202 203 239 270 223 191 181 160 117 153 166 161 163 173 179 187 190 191 183 186 180 184 178 167 189 166 191 186 161 178 160 156
193 161 165 191 298 280 264 240 233 224 180 194 211 201 169 155 180 180 177 165 179 185 178 192 193 190 202 194 196 176 174 180 177 191 159 171 159 174 191 177 171 176 166
169 180 104 66 354 309 246 235 221 165 162 172 193 199 180 185 187 169 167 213 218 184 209 205 199 207 210 181 183 171 171 176 179 155 153 172 162 152 182 188 175 184 188
165 126 85 25 357 1 35 60 65 82 105 100 140 109 244 299 321 209 213 212 197 225 220 213 208 201 192 179 178 167 131 179 178 178 180 183 166 183 165 176 164 173 188
110 107 55 47 57 40 46 79 62 65 61 35 295 217 193 188 192 201 218 214 184 220 185 139 162 173 164 177 173 163 143 160 177 184 186 177 185 181 183 182 178 183 198
95 85 69 64 57 25 57 79 70 59 37 357 310 230 185 181 185 191 182 165 144 161 175 132 160 156 154 191 182 165 162 176 167 163 179 186 193 189 194 189 182 192 205
95 81 67 61 33 20 80 75 65 43 359 23 48 46 39 55 30 66 35 91 92 96 109 139 143 186 169 183 189 191 188 189 177 184 195 192 204 198 202 198 192 203 165
88 85 83 59 30 23 71 68 52 359 26 55 51 46 36 43 95 122 107 106 131 133 151 132 79 24 43 193 210 206 212 205 193 209 197 192 211 205 200 209 212 211 189
96 88 99 85 48 31 34 63 2 13 51 55 45 35 31 32 39 89 114 87 115 137 154 154 167 222 2 324 219 218 211 215 211 199 206 203 204 218 218 222 222 207 203
110 113 104 92 76 46 50 46 14 31 59 65 44 27 48 33 28 32 28 47 54 68 166 171 210 192 183 186 188 203 211 217 221 210 205 212 212 217 220 213 223 211 213
116 109 108 97 83 54 44 18 4 24 91 92 84 62 56 36 26 38 102 69 282 178 233 262 231 185 269 241 221 211 212 208 201 164 163 190 200 202 213 218 219 223 214
118 103 95 105 91 76 61 16 352 47 99 75 45 64 69 14 51 69 1 11 15 342 336 328 288 275 258 267 241 238 239 232 214 197 216 209 206 208 206 215 220 219 219